Change the Weather History Date:

Thursday, October 3, 2013

  Actual Average Record
Temperature  
Mean Temperature 59 °F 50 °F  
Max Temperature 76 °F 61 °F 84 °F (1922)
Min Temperature 42 °F 40 °F 23 °F (1974)
Degree Days  
Heating Degree Days 6 15  
Month to date heating degree days 23 43  
Since 1 July heating degree days 410 424  
Cooling Degree Days 0 0  
Month to date cooling degree days 0 0  
Year to date cooling degree days 381 285  
Growing Degree Days 8 (Base 50)    
Moisture  
Dew Point 56 °F    
Average Humidity 82    
Maximum Humidity 100    
Minimum Humidity 63    
Precipitation  
Precipitation 0.08 in 0.09 in 3.72 in (1954)
Month to date precipitation 0.08 0.28  
Year to date precipitation 21.99 22.50  
Snow  
Snow 0.00 in 0.00 in 0.30 in (1980)
Month to date snowfall 0.0 0.0  
Since 1 July snowfall 0.0 0.0  
Snow Depth 0.00 in    
Sea Level Pressure  
Sea Level Pressure 29.99 in    
Wind  
Wind Speed 6 mph (SE)    
Max Wind Speed 14 mph    
Max Gust Speed 21 mph    
Visibility 10 miles    
Events Rain , Thunderstorm    
T = Trace of Precipitation, MM = Missing Value Source: NWS Daily Summary

Daily Weather History Graph

Daily Weather History Graph

Search for Another Location

Airport or City:

Trip Planner

Search our weather history database for the weather conditions in past years. The results will help you decide how hot, cold, wet, or windy it might be!

Date:

Astronomy

Oct. 03, 2013 Rise Set
Actual Time 7:39 AM EDT 7:15 PM EDT
Civil Twilight 7:10 AM EDT 7:44 PM EDT
Nautical Twilight 6:36 AM EDT 8:17 PM EDT
Astronomical Twilight 6:02 AM EDT 8:51 PM EDT
Moon 6:09 AM EDT (10/3) 6:24 PM EDT (10/3)
Length of Visible Light 12h 33m
Length of Day
11h 36m
Waning Crescent, 2% of the Moon is Illuminated
Oct 3
Waning Crescent
Oct 4
New
Oct 11
First Quarter
Oct 18
Full
Oct 26
Last Quarter

Hourly Weather History & Observations

Time (EDT) Temp. Windchill Dew Point Humidity Pressure Visibility Wind Dir Wind Speed Gust Speed Precip Events Conditions
12:53 AM 42.1 °F 40.2 °F 39.9 °F 92% 30.10 in 10.0 mi ENE 3.5 mph - N/A   Clear
1:53 AM 44.1 °F 42.5 °F 42.1 °F 93% 30.08 in 10.0 mi ESE 3.5 mph - N/A   Clear
2:53 AM 48.0 °F - 42.1 °F 80% 30.07 in 10.0 mi East 4.6 mph - N/A   Clear
3:53 AM 46.9 °F - 42.1 °F 83% 30.06 in 10.0 mi ENE 4.6 mph - N/A   Clear
4:53 AM 46.0 °F 43.9 °F 43.0 °F 89% 30.06 in 10.0 mi East 4.6 mph - N/A   Clear
5:53 AM 45.0 °F 41.8 °F 44.1 °F 97% 30.06 in 10.0 mi East 5.8 mph - N/A   Clear
6:53 AM 48.0 °F - 46.9 °F 96% 30.05 in 10.0 mi ESE 4.6 mph - N/A   Mostly Cloudy
7:53 AM 48.0 °F - 46.0 °F 93% 30.04 in 10.0 mi ESE 5.8 mph - N/A   Scattered Clouds
8:53 AM 55.0 °F - 48.0 °F 77% 30.04 in 10.0 mi SE 5.8 mph - N/A   Scattered Clouds
9:53 AM 61.0 °F - 50.0 °F 67% 30.03 in 10.0 mi SE 9.2 mph - N/A   Mostly Cloudy
10:53 AM 64.9 °F - 51.1 °F 61% 30.02 in 10.0 mi SSE 9.2 mph 18.4 mph N/A   Clear
11:53 AM 68.0 °F - 55.0 °F 63% 29.99 in 10.0 mi SSE 8.1 mph - N/A   Clear
12:53 PM 70.0 °F - 57.0 °F 63% 29.98 in 10.0 mi South 8.1 mph - N/A   Clear
1:36 PM 71.6 °F - 60.8 °F 69% 29.96 in 10.0 mi South 8.1 mph - N/A   Mostly Cloudy
1:53 PM 72.0 °F - 60.1 °F 66% 29.97 in 10.0 mi SSW 8.1 mph - N/A   Overcast
2:32 PM 73.4 °F - 62.6 °F 69% 29.94 in 10.0 mi South 9.2 mph - N/A   Mostly Cloudy
2:53 PM 73.0 °F - 61.0 °F 66% 29.95 in 10.0 mi SSW 8.1 mph - N/A   Overcast
3:02 PM 73.4 °F - 62.6 °F 69% 29.95 in 10.0 mi South 10.4 mph - N/A   Overcast
3:15 PM 75.2 °F - 62.6 °F 65% 29.94 in 10.0 mi South 9.2 mph - N/A   Overcast
3:53 PM 75.0 °F - 62.1 °F 64% 29.92 in 10.0 mi South 6.9 mph - N/A   Mostly Cloudy
4:53 PM 75.9 °F - 63.0 °F 64% 29.91 in 10.0 mi SSW 5.8 mph - N/A   Scattered Clouds
5:53 PM 71.1 °F - 62.1 °F 73% 29.94 in 9.0 mi NNW 12.7 mph 18.4 mph N/A   Mostly Cloudy
6:39 PM 66.2 °F - 62.6 °F 88% 29.93 in 8.0 mi NNE 4.6 mph - 0.00 in Rain , Thunderstorm Light Rain
6:51 PM 64.4 °F - 62.6 °F 94% 29.94 in 10.0 mi Calm Calm - 0.00 in Rain , Thunderstorm Light Thunderstorms and Rain
6:53 PM 64.9 °F - 63.0 °F 93% 29.94 in 10.0 mi Calm Calm - 0.00 in Rain , Thunderstorm Light Thunderstorms and Rain
7:05 PM 64.4 °F - 62.6 °F 94% 29.94 in 10.0 mi Calm Calm - 0.00 in Rain Light Rain
7:53 PM 64.0 °F - 63.0 °F 96% 29.95 in 10.0 mi East 4.6 mph - 0.00 in   Mostly Cloudy
8:05 PM 64.4 °F - 62.6 °F 94% 29.95 in 10.0 mi East 4.6 mph - N/A   Mostly Cloudy
8:28 PM 64.4 °F - 62.6 °F 94% 29.95 in 10.0 mi NE 3.5 mph - N/A   Overcast
8:53 PM 64.0 °F - 63.0 °F 96% 29.96 in 10.0 mi East 3.5 mph - N/A   Overcast
9:53 PM 64.0 °F - 63.0 °F 96% 29.96 in 10.0 mi SE 6.9 mph - 0.08 in   Overcast
10:53 PM 63.0 °F - 63.0 °F 100% 29.96 in 9.0 mi SSE 3.5 mph - N/A   Overcast
11:39 PM 62.6 °F - 62.6 °F 100% 29.95 in 9.0 mi Calm Calm - N/A   Mostly Cloudy